N1930G NTAA-NTTB

Flight info

Callsign N1930G
Flight time 0h 39m
Altitude 16000
Route VAITE4E VAITE DCT HHN RU1B
Aircraft STAR/L-SDFGRWY/S

Departure

Time 2026-04-26 01:25
Airport Fa'a'ā International Airport (NTAA)

Arrival

Time 2026-04-26 02:05
Airport Bora Bora Airport (NTTB)
Time Latitude Longitude Altitude Speed Heading
2026-04-26 01:12 -17.55457 -149.61271 4 ft 0 kts 26°
2026-04-26 01:22 -17.55454 -149.61268 4 ft 5 kts 57°
2026-04-26 01:22 -17.55519 -149.61255 4 ft 5 kts 150°
2026-04-26 01:22 -17.55520 -149.61254 4 ft 0 kts 148°
2026-04-26 01:22 -17.55536 -149.61242 4 ft 0 kts 144°
2026-04-26 01:23 -17.55563 -149.61223 4 ft 2 kts 143°
2026-04-26 01:23 -17.55582 -149.61207 4 ft 14 kts 143°
2026-04-26 01:24 -17.55643 -149.61162 4 ft 8 kts 143°
2026-04-26 01:24 -17.55645 -149.61133 4 ft 0 kts 53°
2026-04-26 01:24 -17.55632 -149.61115 4 ft 16 kts 55°
2026-04-26 01:25 -17.55475 -149.60886 6 ft 61 kts 54°
2026-04-26 01:25 -17.55134 -149.60393 4 ft 107 kts 54°
2026-04-26 01:25 -17.54644 -149.59682 315 ft 130 kts 52°
2026-04-26 01:25 -17.54026 -149.58921 824 ft 142 kts 34°
2026-04-26 01:26 -17.53073 -149.58749 1399 ft 145 kts 343°
2026-04-26 01:26 -17.52289 -149.59383 2064 ft 143 kts 308°
2026-04-26 01:26 -17.51683 -149.60210 2721 ft 145 kts 310°
2026-04-26 01:26 -17.50980 -149.60991 3349 ft 149 kts 314°
2026-04-26 01:27 -17.50253 -149.61766 4016 ft 149 kts 314°
2026-04-26 01:27 -17.49558 -149.62579 4694 ft 150 kts 311°
2026-04-26 01:27 -17.48872 -149.63410 5341 ft 151 kts 312°
2026-04-26 01:27 -17.48171 -149.64233 6026 ft 151 kts 314°
2026-04-26 01:28 -17.47464 -149.65048 6673 ft 151 kts 314°
2026-04-26 01:28 -17.46756 -149.65869 7283 ft 153 kts 313°
2026-04-26 01:28 -17.45997 -149.66761 7653 ft 176 kts 313°
2026-04-26 01:28 -17.45154 -149.67752 8101 ft 189 kts 312°
2026-04-26 01:29 -17.44227 -149.68737 8735 ft 191 kts 320°
2026-04-26 01:29 -17.43150 -149.69571 9382 ft 193 kts 324°
2026-04-26 01:29 -17.42064 -149.70403 10007 ft 194 kts 321°
2026-04-26 01:29 -17.41006 -149.71301 10581 ft 196 kts 320°
2026-04-26 01:30 -17.39925 -149.72187 11153 ft 198 kts 321°
2026-04-26 01:30 -17.38821 -149.73070 11738 ft 201 kts 321°
2026-04-26 01:30 -17.37714 -149.73974 12337 ft 203 kts 320°
2026-04-26 01:30 -17.36607 -149.74880 12935 ft 206 kts 320°
2026-04-26 01:31 -17.35468 -149.75802 13541 ft 208 kts 320°
2026-04-26 01:31 -17.34316 -149.76737 14089 ft 211 kts 320°
2026-04-26 01:31 -17.33145 -149.77689 14617 ft 214 kts 320°
2026-04-26 01:31 -17.31964 -149.78648 15142 ft 217 kts 320°
2026-04-26 01:32 -17.30743 -149.79639 15516 ft 228 kts 320°
2026-04-26 01:32 -17.29444 -149.80696 15700 ft 246 kts 320°
2026-04-26 01:32 -17.28047 -149.81828 15787 ft 262 kts 320°
2026-04-26 01:32 -17.26566 -149.83028 15831 ft 275 kts 320°
2026-04-26 01:33 -17.25027 -149.84276 15854 ft 285 kts 320°
2026-04-26 01:33 -17.23443 -149.85561 15865 ft 292 kts 320°
2026-04-26 01:33 -17.21821 -149.86876 15870 ft 297 kts 320°
2026-04-26 01:33 -17.20175 -149.88210 15873 ft 301 kts 320°
2026-04-26 01:34 -17.18538 -149.89537 15876 ft 303 kts 320°
2026-04-26 01:34 -17.16863 -149.90894 15877 ft 305 kts 320°
2026-04-26 01:34 -17.15179 -149.92258 15878 ft 306 kts 320°
2026-04-26 01:34 -17.13491 -149.93625 15878 ft 307 kts 320°
2026-04-26 01:35 -17.11800 -149.94994 15875 ft 308 kts 320°
2026-04-26 01:35 -17.10107 -149.96364 15876 ft 308 kts 320°
2026-04-26 01:35 -17.08567 -149.97894 15875 ft 305 kts 304°
2026-04-26 01:35 -17.07588 -149.99841 15876 ft 302 kts 290°
2026-04-26 01:36 -17.06882 -150.01911 15881 ft 302 kts 287°
2026-04-26 01:36 -17.06127 -150.03930 15881 ft 303 kts 292°
2026-04-26 01:36 -17.05320 -150.05964 15881 ft 303 kts 289°
2026-04-26 01:37 -17.03759 -150.10055 15881 ft 303 kts 290°
2026-04-26 01:37 -17.02977 -150.12103 15880 ft 303 kts 290°
2026-04-26 01:37 -17.02192 -150.14151 15880 ft 303 kts 290°
2026-04-26 01:37 -17.01402 -150.16196 15881 ft 304 kts 290°
2026-04-26 01:38 -17.00615 -150.18247 15878 ft 304 kts 290°
2026-04-26 01:38 -16.99824 -150.20304 15878 ft 304 kts 290°
2026-04-26 01:38 -16.99032 -150.22361 15878 ft 306 kts 290°
2026-04-26 01:38 -16.98237 -150.24427 15878 ft 307 kts 290°
2026-04-26 01:39 -16.97447 -150.26479 15878 ft 309 kts 290°
2026-04-26 01:39 -16.96643 -150.28565 15878 ft 310 kts 290°
2026-04-26 01:39 -16.95836 -150.30659 15878 ft 310 kts 290°
2026-04-26 01:39 -16.95029 -150.32752 15878 ft 311 kts 290°
2026-04-26 01:40 -16.94220 -150.34850 15878 ft 311 kts 290°
2026-04-26 01:40 -16.93409 -150.36954 15878 ft 311 kts 290°
2026-04-26 01:40 -16.92601 -150.39049 15878 ft 312 kts 290°
2026-04-26 01:40 -16.91789 -150.41151 15878 ft 312 kts 290°
2026-04-26 01:41 -16.90975 -150.43258 15877 ft 312 kts 290°
2026-04-26 01:41 -16.90170 -150.45343 15878 ft 313 kts 290°
2026-04-26 01:41 -16.89356 -150.47450 15879 ft 313 kts 290°
2026-04-26 01:41 -16.88540 -150.49560 15879 ft 313 kts 290°
2026-04-26 01:42 -16.87725 -150.51668 15881 ft 313 kts 290°
2026-04-26 01:42 -16.86909 -150.53778 15881 ft 313 kts 290°
2026-04-26 01:42 -16.86093 -150.55886 15881 ft 313 kts 290°
2026-04-26 01:42 -16.85278 -150.57991 15881 ft 313 kts 290°
2026-04-26 01:43 -16.84463 -150.60098 15882 ft 313 kts 290°
2026-04-26 01:43 -16.83647 -150.62204 15881 ft 313 kts 290°
2026-04-26 01:43 -16.82830 -150.64313 15881 ft 313 kts 290°
2026-04-26 01:43 -16.82013 -150.66419 15881 ft 313 kts 290°
2026-04-26 01:44 -16.81198 -150.68521 15876 ft 313 kts 290°
2026-04-26 01:44 -16.80380 -150.70630 15876 ft 313 kts 290°
2026-04-26 01:44 -16.79561 -150.72741 15876 ft 314 kts 290°
2026-04-26 01:44 -16.78752 -150.74825 15875 ft 314 kts 290°
2026-04-26 01:45 -16.77932 -150.76937 15876 ft 314 kts 290°
2026-04-26 01:45 -16.77113 -150.79046 15877 ft 314 kts 290°
2026-04-26 01:45 -16.76291 -150.81160 15878 ft 314 kts 290°
2026-04-26 01:45 -16.75470 -150.83273 15731 ft 318 kts 290°
2026-04-26 01:46 -16.74617 -150.85469 15252 ft 330 kts 291°
2026-04-26 01:46 -16.73746 -150.87704 14899 ft 333 kts 291°
2026-04-26 01:46 -16.72878 -150.89935 14725 ft 330 kts 291°
2026-04-26 01:46 -16.72019 -150.92144 14547 ft 328 kts 291°
2026-04-26 01:47 -16.71159 -150.94350 14333 ft 327 kts 291°
2026-04-26 01:47 -16.70304 -150.96546 14152 ft 326 kts 291°
2026-04-26 01:47 -16.69450 -150.98736 13983 ft 325 kts 291°
2026-04-26 01:47 -16.68595 -151.00914 13834 ft 324 kts 291°
2026-04-26 01:48 -16.67881 -151.03133 13662 ft 322 kts 285°
2026-04-26 01:48 -16.67226 -151.05332 13386 ft 321 kts 288°
2026-04-26 01:48 -16.66504 -151.07536 13123 ft 320 kts 287°
2026-04-26 01:48 -16.65832 -151.09745 12871 ft 318 kts 287°
2026-04-26 01:49 -16.65135 -151.11930 12630 ft 317 kts 288°
2026-04-26 01:49 -16.64453 -151.14109 12391 ft 315 kts 287°
2026-04-26 01:49 -16.63774 -151.16277 12148 ft 314 kts 288°
2026-04-26 01:49 -16.63094 -151.18431 11912 ft 312 kts 288°
2026-04-26 01:50 -16.62420 -151.20579 11679 ft 311 kts 288°
2026-04-26 01:50 -16.61755 -151.22694 11453 ft 310 kts 288°
2026-04-26 01:50 -16.61084 -151.24822 11217 ft 309 kts 288°
2026-04-26 01:50 -16.60419 -151.26940 11048 ft 306 kts 287°
2026-04-26 01:51 -16.59763 -151.29042 10872 ft 304 kts 289°
2026-04-26 01:51 -16.59051 -151.31095 10839 ft 298 kts 289°
2026-04-26 01:51 -16.58393 -151.33125 10826 ft 294 kts 288°
2026-04-26 01:51 -16.57725 -151.35132 10768 ft 292 kts 289°
2026-04-26 01:52 -16.57056 -151.37131 10698 ft 292 kts 288°
2026-04-26 01:52 -16.56398 -151.39128 10626 ft 291 kts 288°
2026-04-26 01:52 -16.55735 -151.41118 10551 ft 291 kts 289°
2026-04-26 01:52 -16.55072 -151.43110 10482 ft 290 kts 288°
2026-04-26 01:53 -16.54412 -151.45097 10281 ft 289 kts 289°
2026-04-26 01:53 -16.53763 -151.47047 10047 ft 288 kts 289°
2026-04-26 01:53 -16.53108 -151.49015 9831 ft 286 kts 289°
2026-04-26 01:53 -16.52459 -151.50967 9675 ft 282 kts 289°
2026-04-26 01:54 -16.51824 -151.52873 9432 ft 277 kts 289°
2026-04-26 01:54 -16.51193 -151.54768 9135 ft 276 kts 289°
2026-04-26 01:54 -16.50564 -151.56656 8856 ft 276 kts 289°
2026-04-26 01:54 -16.49936 -151.58539 8596 ft 274 kts 289°
2026-04-26 01:55 -16.49310 -151.60417 8320 ft 274 kts 289°
2026-04-26 01:55 -16.48685 -151.62290 8075 ft 273 kts 289°
2026-04-26 01:55 -16.48061 -151.64159 7810 ft 273 kts 289°
2026-04-26 01:55 -16.47438 -151.66028 7577 ft 273 kts 289°
2026-04-26 01:56 -16.46815 -151.67893 7337 ft 272 kts 289°
2026-04-26 01:56 -16.46194 -151.69757 7101 ft 272 kts 289°
2026-04-26 01:56 -16.45568 -151.71625 6875 ft 272 kts 289°
2026-04-26 01:56 -16.44917 -151.73478 6639 ft 272 kts 295°
2026-04-26 01:57 -16.43726 -151.74997 6396 ft 273 kts 323°
2026-04-26 01:57 -16.42027 -151.75851 6161 ft 272 kts 345°
2026-04-26 01:57 -16.40179 -151.76258 5943 ft 271 kts 351°
2026-04-26 01:57 -16.38324 -151.76607 5739 ft 270 kts 348°
2026-04-26 01:58 -16.36507 -151.77068 5551 ft 268 kts 347°
2026-04-26 01:58 -16.34714 -151.77469 5398 ft 265 kts 348°
2026-04-26 01:58 -16.32914 -151.77880 5221 ft 264 kts 347°
2026-04-26 01:58 -16.31127 -151.78304 5003 ft 263 kts 347°
2026-04-26 01:59 -16.29471 -151.79068 4740 ft 262 kts 322°
2026-04-26 01:59 -16.28285 -151.80499 4497 ft 261 kts 304°
2026-04-26 01:59 -16.27307 -151.82094 4266 ft 261 kts 301°
2026-04-26 01:59 -16.26686 -151.83172 4114 ft 262 kts 300°
2026-04-26 02:00 -16.25840 -151.84846 3861 ft 261 kts 288°
2026-04-26 02:00 -16.25858 -151.87294 3603 ft 259 kts 249°
2026-04-26 02:00 -16.26827 -151.88841 3436 ft 256 kts 225°
2026-04-26 02:00 -16.27752 -151.89638 3315 ft 255 kts 214°
2026-04-26 02:01 -16.29242 -151.90632 3152 ft 254 kts 210°
2026-04-26 02:01 -16.30743 -151.91548 2975 ft 252 kts 201°
2026-04-26 02:01 -16.32459 -151.91788 2817 ft 250 kts 172°
2026-04-26 02:01 -16.34055 -151.91118 2668 ft 250 kts 143°
2026-04-26 02:02 -16.35193 -151.89762 2514 ft 249 kts 124°
2026-04-26 02:02 -16.36125 -151.88242 2338 ft 249 kts 121°
2026-04-26 02:02 -16.37006 -151.86694 2163 ft 248 kts 120°
2026-04-26 02:02 -16.37862 -151.85147 2074 ft 245 kts 120°
2026-04-26 02:03 -16.38699 -151.83630 2074 ft 238 kts 120°
2026-04-26 02:03 -16.39530 -151.82163 1926 ft 228 kts 123°
2026-04-26 02:03 -16.40417 -151.80857 1604 ft 215 kts 129°
2026-04-26 02:03 -16.41368 -151.79699 1269 ft 203 kts 134°
2026-04-26 02:04 -16.42197 -151.78565 967 ft 190 kts 135°
2026-04-26 02:04 -16.42860 -151.77504 578 ft 157 kts 134°
2026-04-26 02:04 -16.43430 -151.76677 276 ft 128 kts 126°
2026-04-26 02:04 -16.43889 -151.75961 64 ft 110 kts 127°
2026-04-26 02:05 -16.44255 -151.75406 15 ft 55 kts 123°
2026-04-26 02:05 -16.44358 -151.75271 13 ft 19 kts 157°
2026-04-26 02:05 -16.44441 -151.75309 11 ft 7 kts 215°
2026-04-26 02:05 -16.44484 -151.75341 10 ft 0 kts 215°
2026-04-26 02:06 -16.44523 -151.75347 10 ft 8 kts 129°
2026-04-26 02:06 -16.44537 -151.75327 10 ft 0 kts 127°